Location: Bouchavesnes-Bergen
(49.9859°N, 2.9203°E)
Time: 20:11:29
(UTC+00:00)

N. Korean satellite - Visible Passes

Search period start: 02 February 2023 00:00
Search period end: 12 February 2023 00:00
Orbit: 407 x 443 km, 97.3° (Epoch: 01 February)

Date Brightness Start Highest point End Pass type
(mag) Time Alt. Az. Time Alt. Az. Time Alt. Az.
02 Feb 8.8 04:34:49 10° NE 04:37:23 22° E 04:39:58 10° SSE visible
02 Feb 7.3 06:06:55 10° N 06:09:39 25° WNW 06:12:23 10° SW visible
03 Feb 6.1 05:23:57 10° NNE 05:27:12 87° WNW 05:30:27 10° SSW visible
03 Feb 10.0 17:30:43 10° WSW 17:31:31 11° W 17:32:18 10° WNW visible
04 Feb 8.5 04:41:39 10° NE 04:44:27 26° E 04:47:14 10° SSE visible
04 Feb 7.5 06:14:04 10° NNW 06:16:37 22° WNW 06:19:11 10° WSW visible
05 Feb 6.1 05:30:50 10° N 05:34:04 71° WNW 05:37:19 10° SSW visible
06 Feb 8.2 04:48:17 10° NNE 04:51:13 31° E 04:54:10 10° SSE visible
06 Feb 7.7 06:20:57 10° NNW 06:23:19 19° WNW 06:25:40 10° WSW visible
07 Feb 9.9 04:07:31 10° E 04:08:04 10° E 04:08:37 10° E visible
07 Feb 6.3 05:37:28 10° N 05:40:40 58° WNW 05:43:53 10° SSW visible
08 Feb 7.8 04:54:40 10° NNE 04:57:44 37° E 05:00:49 10° SSE visible
08 Feb 7.9 06:27:37 10° NNW 06:29:44 16° WNW 06:31:52 10° WSW visible
09 Feb 9.7 04:13:05 10° ENE 04:14:30 12° E 04:15:54 10° ESE visible
09 Feb 6.5 05:43:51 10° N 05:47:00 48° WNW 05:50:11 10° SSW visible
10 Feb 7.4 05:00:49 10° NNE 05:03:59 44° E 05:07:08 10° S visible
11 Feb 9.6 04:18:46 10° NE 04:20:39 14° E 04:22:31 10° SE visible
11 Feb 6.7 05:49:58 10° N 05:53:05 41° WNW 05:56:11 10° SW visible
